Hourly Data Report for October 30, 2015

All times are specified in Local Standard Time (LST). Add 1 hour to adjust for Daylight Saving Time where and when it is observed.

ARVIAT A
NUNAVUT

61°05'38.000" N
94°04'18.000" W
10.40 m
2300427
71174
YEK

Download Data

Hourly Data (October 2015)
Hourly Data Report for October 30, 2015
Temp Definition
°C
Dew Point Temp Definition
°C
Rel Hum Definition
%
Wind Dir Definition
10's deg

Wind Spd Definition
km/h
Visibility Definition
km
Stn Press Definition
kPa
Hmdx Definition


Wind Chill Definition


Weather Definition


TIME
00:00 Legend Double Dagger -17.9 -19.5 88 34 21 16.1 100.91   -28 LegendNANA
01:00 Legend Double Dagger -19.0 -20.6 88 34 18 16.1 100.90   -29 LegendNANA
02:00 Legend Double Dagger -19.9 -21.4 88 35 18 16.1 100.91   -30 LegendNANA
03:00 Legend Double Dagger -18.4 -19.7 90 35 15 16.1 100.88   -27 LegendNANA
04:00 Legend Double Dagger -18.6 -20.0 89 35 17 16.1 100.87   -28 LegendNANA
05:00 Legend Double Dagger -19.1 -20.6 88 34 13 16.1 100.85   -27 LegendNANA
06:00 Legend Double Dagger -19.1 -20.6 88 34 18 16.1 100.82   -29 Snow
07:00 Legend Double Dagger -18.4 -19.7 90 34 15 16.1 100.80   -27 LegendNANA
08:00 Legend Double Dagger -17.6 -18.6 92 35 13 16.1 100.78   -25 LegendNANA
09:00 Legend Double Dagger -16.4 -17.5 91 1 13 6.4 100.74   -24 Snow
10:00 Legend Double Dagger -15.0 -15.9 93 1 17 2.0 100.70   -23 Snow
11:00 Legend Double Dagger -13.9 -14.8 93 36 9 16.1 100.68   -20 LegendNANA
12:00 Legend Double Dagger -13.3 -14.2 93 LegendMM 4 16.1 100.67   -16 LegendNANA
13:00 Legend Double Dagger -10.5 -11.0 96   0 16.1 100.64     Snow
14:00 Legend Double Dagger -4.9 -6.1 91 13 24 16.1 100.57   -12 LegendNANA
15:00 Legend Double Dagger -4.0 -6.4 84 10 26 16.1 100.54   -11 Snow
16:00 Legend Double Dagger -3.5 -6.3 81 11 30 16.1 100.50   -11 Snow
17:00 Legend Double Dagger -3.6 -6.2 82 11 32 16.1 100.49   -11 LegendNANA
18:00 Legend Double Dagger -3.4 -5.7 84 10 34 16.1 100.50   -11 Snow
19:00 Legend Double Dagger -3.1 -5.5 83 11 35 16.1 100.49   -11 Snow
20:00 Legend Double Dagger -2.9 -5.2 84 11 37 16.1 100.49   -11 LegendNANA
21:00 Legend Double Dagger -2.8 -5.2 84 12 43 16.1 100.48   -11 Snow
22:00 Legend Double Dagger -2.6 -5.5 81 12 43 16.1 100.48   -11 Snow
23:00 Legend Double Dagger -2.6 -4.4 87 12 37 8.1 100.48   -11 Snow

Notes on Data Quality.

Legend

  • E = Estimated
  • M = Missing
  • NA = Not Available
  • ‡ = Partner data that is not subject to review by the National Climate Archives
Date modified: